Regional Weather Roundup
Issued by NWS

Home | Current Version | Previous Version | Graphics & Text | Print | Product List | Glossary Off
Versions: 1 2 3 4 5 6 7 8 9 10 11 12 13 14 15 16 17 18 19 20 21 22 23 24 25 26 27 28 29 30 31 32 33 34 35 36 37 38 39 40 41 42 43 44 45 46 47 48 49 50

000
ASUS43 KDMX 231007
RWRIA

WEATHER ROUNDUP FOR IOWA
NATIONAL WEATHER SERVICE DES MOINES IA
500 AM CDT WED JUL 23 2014

NOTE: "FAIR" INDICATES FEW OR NO CLOUDS BELOW 12,000 FEET WITH NO
SIGNIFICANT WEATHER AND/OR OBSTRUCTIONS TO VISIBILITY.

* - THESE STATIONS ARE NOT NWS STATIONS...THUS NOT UNDER NWS
QUALITY CONTROL.  THEY ALSO DO NOT REPORT WEATHER SUCH
AS PRECIPITATION OR FOG.

IAZ001>003-012>014-020>022-031>034-043>046-231100-
   NORTHWEST IOWA

CITY           SKY/WX    TMP DP  RH WIND       PRES   REMARKS
CARROLL *      PTCLDY    59  57  94 N6        30.20R
CHEROKEE *     CLEAR     59  59 100 N6        30.21F
DENISON *      CLEAR     63  57  82 CALM      30.19R
LE MARS *      CLEAR     59  57  94 CALM      30.22R
ORANGE CITY *  CLEAR     63  54  72 NE6       30.22S
SHELDON *      CLEAR     55  55 100 NE5       30.21F
SIOUX CITY     CLEAR     60  58  92 CALM      30.22R
SPENCER        MOCLDY    58  55  90 CALM      30.23R
STORM LAKE *   CLEAR     63  59  88 NE12      30.22F
$$

IAZ055>058-069>071-079>083-090>094-231100-
   SOUTHWEST IOWA

CITY           SKY/WX    TMP DP  RH WIND       PRES   REMARKS
ATLANTIC *     PTCLDY    63  57  82 NE3       30.18S
AUDUBON *      CLEAR     63  59  88 N5        30.20S
CLARINDA *     CLEAR     64  63  94 N3        30.17S
COUNCIL BLFS *   N/A     63  61  94 NE6       30.18R
CRESTON *      CLEAR     64  59  82 NE9       30.16S
HARLAN  *      CLEAR     61  59  94 N5        30.23S
LAMONI         CLEAR     66  62  87 N7        30.15R
RED OAK *      CLEAR     64  61  88 N8        30.17R
SHENANDOAH *   CLEAR     63  61  94 N5        30.17S
$$

IAZ047>049-059>061-072>074-084-231100-
   CENTRAL IOWA

CITY           SKY/WX    TMP DP  RH WIND       PRES   REMARKS
AMES           CLEAR     62  59  90 N8        30.17R
ANKENY *       CLEAR     64  59  82 N7        30.15S
CHARITON *     PTCLDY    66  63  88 N5        30.15R
DES MOINES     PTCLDY    69  59  70 N9        30.15S
GRINNELL*      CLEAR     64  61  88 N8        30.16R
KNOXVILLE *    CLEAR     68  63  83 N8        30.13S
MARSHALLTOWN   CLEAR     62  60  93 N7        30.15S
PELLA *        CLEAR     64  63  94 N3        30.15S
PERRY *          N/A     61  59  94 N5        30.18S
$$

IAZ004>006-015-016-023>025-035-036-231100-
   NORTH CENTRAL IOWA

CITY           SKY/WX    TMP DP  RH WIND       PRES   REMARKS
ALGONA *       CLEAR     59  55  88 N5        30.22S
CLARION *      CLEAR     57  55  94 CALM      30.19S
ESTHERVILLE    PTCLDY    57  54  89 N7        30.22S
FORT DODGE *   CLEAR     61  55  82 N5        30.20S
MASON CITY     CLEAR     56  55  97 N6        30.21R
FOREST CITY *  CLEAR     59  57  94 N5        30.20R
IOWA FALLS *     N/A     61  57  88 N5        30.19S
$$

IAZ007>011-017>019-026>030-037>042-050>054-066-231100-
   NORTHEAST IOWA

CITY           SKY/WX    TMP DP  RH WIND       PRES   REMARKS
CEDAR RAPIDS   CLEAR     67  63  87 N8        30.13R
CHARLES CITY * CLEAR     61  57  88 N6        30.20R
DECORAH *      CLOUDY    64  61  88 CALM      30.18R
DUBUQUE        CLEAR     65  60  84 NE8       30.15R
MONTICELLO *   CLEAR     63  63 100 CALM      30.14R
OELWEIN *      CLEAR     63  61  94 N6        30.18R
WATERLOO       CLEAR     62  60  93 N6        30.15S
$$

IAZ064-065-067-068-078-231100-
   EAST CENTRAL IOWA

CITY           SKY/WX    TMP DP  RH WIND       PRES   REMARKS
DAVENPORT      CLEAR     67  63  87 N10       30.10R
IOWA CITY      CLEAR     70  64  81 N9        30.13R
MT. PLEASANT * CLEAR     68  66  94 N8        30.10R
MUSCATINE *    CLEAR     70  64  83 N9        30.10R
QUAD CITIES    CLEAR     71  64  78 N6        30.08R
$$

IAZ062-063-075>077-085>089-095>099-231100-
   SOUTHEAST IOWA

CITY           SKY/WX    TMP DP  RH WIND       PRES   REMARKS
BURLINGTON     CLEAR     71  67  87 N10       30.07S
FAIRFIELD *    CLEAR     66  64  94 N7        30.11S
FORT MADISON * CLEAR     70  68  94 N7        30.09S
KEOKUK *       CLEAR     72  68  88 N8        30.06S
OSKALOOSA *      N/A     66  64  94 N6        30.14R
CENTERVILLE *  CLEAR     68  66  94 N8        30.14S
OTTUMWA        CLEAR     66  64  93 N8        30.13R
WASHINGTON *   CLEAR     68  66  94 N9        30.11R
$$

ABBREVIATIONS USED IN REMARKS
   TC - TEMPERATURES IN CELSIUS
  WCI - WIND CHILL INDEX
   HX - HEAT INDEX
  VSB - VISIBILITY
$$



USA.gov is the U.S. government's official web portal to all federal, state and local government web resources and services.